Location: B?lite?ti
(46.2833°N, 22.7333°E)
Time: 17:28:38
(UTC+00:00)

USA 229 DEB - Pass Details

Date: 24 January 2021
Orbit: 965 x 1247 km, 63.4° (Epoch: 26 February)

Event Time Altitude Azimuth Distance (km) Brightness Sun altitude
Rises 16:43:02 0° 320° (NW) 3,927 7.0 -13.9°
Reaches altitude 10° 16:45:43 10° 325° (NW) 3,007 6.3 -14.4°
Maximum altitude 16:52:50 58° 44° (NE) 1,362 4.0 -15.6°
Enters shadow 16:59:53 12° 122° (ESE) 3,018 5.6 -16.8°
